Location: Katowice
(50.2611°N, 19.0242°E)
Time: 23:54:35
(UTC+02:00)

ISS - Pass Details

Date: 31 March 2019
Orbit: 408 x 410 km, 51.6° (Epoch: 23 April)

Event Time Altitude Azimuth Distance (km) Brightness Sun altitude
Rises 21:00:43 0° 284° (WNW) 2,339 1.5 -16.9°
Reaches altitude 10° 21:02:49 10° 285° (WNW) 1,476 0.2 -17.2°
Maximum altitude 21:06:08 89° 17° (NNE) 414 -3.9 -17.7°
Enters shadow 21:06:40 59° 104° (ESE) 476 -3.9 -17.8°
